FW7308 Weather Reports


time (UTC)temp
C
wind
direction
speed
KPH
gust
KPH
rain 1hr
cm
rain 24hr
cm
rain mn
cm
humidity
%
barometer
mb
20260906174218 18 305 8.0 9.7 0.00 0.00 0.76 78 1018.6
20260906173717 18 305 8.0 9.7 0.00 0.00 0.76 78 1018.6
20260906173218 -17 0.0 0.0 0.00 0.00 0.76 1018.6
20260906172717 -17 0.0 0.0 0.00 0.00 0.76 1018.6
20260906172216 -17 0.0 0.0 0.00 0.00 0.76 1018.6
20260906171715 18 333 8.0 9.7 0.00 0.00 0.76 84 1018.6
20260906171247 18 333 8.0 9.7 0.00 0.00 0.76 84 1018.6
20260906170746 17 19 6.4 8.0 0.00 0.00 0.76 84 1018.9
20260906170346 17 19 6.4 8.0 0.00 0.00 0.76 84 1018.9
20260906165747 17 307 3.2 4.8 0.00 0.00 0.76 86 1018.9
20260906165244 17 327 4.8 8.0 0.00 0.00 0.76 85 1018.9
20260906164745 17 320 8.0 9.7 0.00 0.00 0.76 87 1018.9
20260906164247 15 14 4.8 8.0 0.00 0.00 0.76 93 1019.3
20260906163743 15 331 4.8 9.7 0.00 0.00 0.76 94 1019.3
20260906163345 15 334 3.2 3.2 0.00 0.00 0.76 95 1019.3
20260906162743 15 317 1.6 4.8 0.00 0.00 0.76 96 1019.3
20260906162243 15 290 3.2 4.8 0.00 0.00 0.76 95 1019.3
20260906161744 16 317 3.2 8.0 0.00 0.00 0.76 91 1019.3
20260906161243 16 325 1.6 1.6 0.00 0.00 0.76 89 1019.4
20260906160742 16 339 1.6 3.2 0.00 0.00 0.76 89 1019.3
20260906160241 16 339 4.8 4.8 0.00 0.00 0.76 90 1019.3
20260906155741 16 305 3.2 9.7 0.00 0.00 0.76 91 1019.3
20260906155241 16 328 1.6 1.6 0.00 0.00 0.76 91 1019.3
20260906154741 17 35 8.0 11.3 0.00 0.00 0.76 88 1018.9
20260906154240 17 328 3.2 4.8 0.00 0.00 0.76 87 1019.1
20260906153842 16 313 4.8 4.8 0.00 0.00 0.76 90 1019.3
20260906153241 16 327 3.2 4.8 0.00 0.00 0.76 89 1018.9
20260906152740 17 324 8.0 9.7 0.00 0.00 0.76 89 1019.3
20260906152240 17 316 3.2 4.8 0.00 0.00 0.76 89 1019.4
20260906151740 17 303 1.6 1.6 0.00 0.00 0.76 90 1019.3
20260906151239 17 96 3.2 9.7 0.00 0.00 0.76 89 1019.6
20260906150738 17 96 3.2 9.7 0.00 0.00 0.76 89 1019.3
20260906150238 16 3 11.3 14.5 0.00 0.00 0.76 93 1019.3
20260906145737 16 316 1.6 1.6 0.00 0.00 0.76 93 1019.3
20260906145236 16 321 1.6 1.6 0.00 0.00 0.76 94 1019.3
20260906144737 15 345 1.6 3.2 0.00 0.00 0.76 96 1019.3
20260906144236 15 336 1.6 3.2 0.00 0.00 0.76 96 1019.3
20260906143735 15 334 1.6 3.2 0.00 0.00 0.76 96 1019.3
20260906143235 15 327 1.6 1.6 0.00 0.00 0.76 98 1019.1
20260906142736 15 325 1.6 1.6 0.00 0.00 0.76 99 1018.9
20260906142235 15 303 4.8 4.8 0.00 0.00 0.76 99 1019.3
20260906141734 15 326 3.2 3.2 0.00 0.00 0.76 99 1019.3
20260906141235 14 0.0 0.0 0.00 0.00 0.76 99 1019.3
20260906140733 13 325 4.8 4.8 0.00 0.00 0.76 99 1019.3
20260906140335 13 303 4.8 4.8 0.00 0.00 0.76 99 1019.3
20260906135733 13 306 3.2 4.8 0.00 0.00 0.76 99 1019.3
20260906135232 13 294 4.8 8.0 0.00 0.00 0.76 99 1019.6
20260906134733 13 326 3.2 3.2 0.00 0.00 0.76 99 1019.3
20260906134233 13 285 4.8 4.8 0.00 0.00 0.76 99 1019.3
20260906133833 13 324 1.6 1.6 0.00 0.00 0.76 99 1018.9
20260906133231 13 297 3.2 3.2 0.00 0.00 0.76 99 1019.1
20260906132733 12 326 0.0 1.6 0.00 0.00 0.76 99 1018.9
20260906132232 12 310 3.2 9.7 0.00 0.00 0.76 99 1019.3
20260906131731 12 321 1.6 1.6 0.00 0.00 0.76 99 1019.1
20260906131230 12 0.0 0.0 0.00 0.00 0.76 99 1019.3
20260906130731 12 330 0.0 1.6 0.00 0.00 0.76 99 1019.1
20260906130230 12 0.0 0.0 0.00 0.00 0.76 99 1018.9
20260906120226 12 323 3.2 3.2 0.00 0.00 0.66 99 1018.6
20260906105721 12 0.0 0.0 0.00 0.00 0.64 99 1017.9
20260906105224 12 0.0 0.0 0.00 0.00 0.64 99 1017.9
20260906104721 12 335 1.6 1.6 0.00 0.00 0.64 99 1017.9
20260906104221 12 318 0.0 1.6 0.00 0.00 0.64 99 1017.9
20260906103720 12 314 0.0 1.6 0.00 0.00 0.64 99 1017.9
20260906103221 12 0.0 0.0 0.00 0.00 0.61 99 1017.9
20260906102722 12 320 1.6 1.6 0.00 0.00 0.58 99 1017.9
20260906102219 12 319 1.6 3.2 0.00 0.00 0.56 99 1017.9
20260906101718 12 0.0 0.0 0.00 0.00 0.56 99 1017.9
20260906100719 12 320 1.6 1.6 0.00 0.00 0.56 99 1017.7
20260906100218 12 324 0.0 1.6 0.00 0.00 0.53 99 1017.9
20260906095717 12 322 0.0 1.6 0.00 0.00 0.53 99 1017.5
20260906095218 12 0.0 0.0 0.00 0.00 0.48 99 1017.5
20260906094717 12 0.0 0.0 0.00 0.00 0.46 99 1017.5
20260906094218 12 0.0 0.0 0.00 0.00 0.46 99 1017.5
20260906093247 12 0.0 0.0 0.00 0.00 0.43 99 1017.3
20260906092746 12 318 1.6 1.6 0.00 0.00 0.43 99 1017.2
20260906092245 12 310 0.0 1.6 0.00 0.00 0.43 99 1017.5
20260906091245 12 310 1.6 3.2 0.00 0.00 0.43 99 1017.2
20260906090244 12 333 1.6 1.6 0.00 0.00 0.41 99 1017.2
20260906085744 12 0.0 0.0 0.00 0.00 0.41 99 1016.8
20260906085242 13 0.0 0.0 0.00 0.00 0.41 99 1016.8
20260906084746 13 0.0 0.0 0.00 0.00 0.41 99 1016.8
20260906084242 13 0.0 0.0 0.00 0.00 0.41 99 1016.8
20260906083741 13 0.0 0.0 0.00 0.00 0.41 99 1016.8
20260906083242 13 325 1.6 1.6 0.00 0.00 0.41 99 1016.8
20260906082744 13 322 1.6 3.2 0.00 0.00 0.41 99 1017.0
20260906082241 13 320 1.6 3.2 0.00 0.00 0.41 99 1016.8
20260906081741 13 332 1.6 1.6 0.00 0.00 0.41 99 1016.8
20260906080240 13 322 1.6 1.6 0.00 0.00 0.41 99 1016.8
20260906075743 13 324 0.0 1.6 0.00 0.00 0.41 99 1016.8
20260906075241 13 323 0.0 1.6 0.00 0.00 0.41 99 1016.8
20260906074742 13 0.0 0.0 0.00 0.00 0.41 99 1016.8
20260906074239 13 318 1.6 1.6 0.00 0.00 0.41 99 1016.8
20260906063734 13 0.0 0.0 0.00 0.00 0.38 99 1016.8
20260906063233 13 0.0 0.0 0.00 0.00 0.38 99 1016.8
20260906062735 13 326 0.0 1.6 0.00 0.00 0.38 99 1016.8
20260906062234 13 326 0.0 1.6 0.00 0.00 0.38 99 1016.8
20260906061733 13 0.0 0.0 0.00 0.00 0.38 99 1016.8
20260906061232 13 0.0 0.0 0.00 0.00 0.38 99 1016.8
20260906060731 13 327 0.0 1.6 0.00 0.00 0.38 99 1016.8
20260906060233 13 323 1.6 1.6 0.00 0.00 0.38 99 1016.8
20260906055731 13 329 1.6 3.2 0.00 0.00 0.38 99 1016.8
20260906051731 13 324 0.0 1.6 0.00 0.00 0.38 99 1016.8
20260906051230 13 0.0 0.0 0.00 0.00 0.38 99 1016.8
20260906050730 13 330 1.6 1.6 0.00 0.00 0.38 99 1016.8
20260906050229 13 0.0 0.0 0.00 0.00 0.38 99 1016.8
20260906045228 13 0.0 0.0 0.00 0.00 0.38 99 1016.8
20260906044229 13 326 0.0 1.6 0.00 0.00 0.36 99 1017.2
20260906043727 13 0.0 0.0 0.00 0.00 0.36 99 1016.8
20260906043226 13 323 1.6 1.6 0.00 0.00 0.33 99 1016.8
20260906042725 13 324 0.0 1.6 0.00 0.00 0.30 99 1016.8
20260906042226 13 0.0 0.0 0.00 0.00 0.28 99 1016.8
20260906041725 13 0.0 0.0 0.00 0.00 0.20 99 1017.2
20260906041225 13 0.0 0.0 0.00 0.00 0.13 99 1017.2
20260906040724 13 0.0 0.0 0.00 0.00 0.03 99 1017.2
20260906040226 13 0.0 0.0 0.00 0.00 0.00 99 1017.2
20260906035724 13 324 1.6 1.6 0.00 0.00 0.38 99 1017.2
20260906035223 13 326 0.0 1.6 0.00 0.00 0.38 99 1017.2
20260906034723 13 329 1.6 1.6 0.00 0.00 0.36 99 1017.2
20260906034224 13 326 1.6 1.6 0.00 0.00 0.33 99 1017.2
20260906033724 13 319 1.6 1.6 0.00 0.00 0.33 99 1016.8
20260906033222 13 330 1.6 1.6 0.00 0.00 0.30 99 1016.8
20260906032721 13 322 1.6 1.6 0.00 0.00 0.30 99 1016.8
20260906032220 13 330 0.0 1.6 0.00 0.00 0.28 99 1016.8
20260906031721 13 0.0 0.0 0.00 0.00 0.28 99 1016.8
20260906031220 13 0.0 0.0 0.00 0.00 0.28 99 1016.8
20260906030719 13 0.0 0.0 0.00 0.00 0.28 99 1016.8
20260906030220 14 0.0 0.0 0.00 0.00 0.28 99 1016.8
20260906025720 14 312 1.6 3.2 0.00 0.00 0.28 99 1016.8
20260906025219 14 280 4.8 4.8 0.00 0.00 0.28 99 1016.6
20260906024718 14 277 4.8 4.8 0.00 0.00 0.28 99 1016.5
20260906024219 14 303 3.2 3.2 0.00 0.00 0.25 99 1016.8
20260906023719 14 304 3.2 4.8 0.00 0.00 0.25 99 1016.6
20260906023218 15 304 3.2 4.8 0.00 0.00 0.23 99 1016.5
20260906022717 15 313 1.6 3.2 0.00 0.00 0.23 99 1016.5
20260906022257 15 317 3.2 3.2 0.00 0.00 0.20 99 1016.5
20260906011744 16 0.0 0.0 0.00 0.00 0.00 96 1016.3
20260906011243 17 323 1.6 3.2 0.00 0.00 0.00 95 1016.1
20260906010745 17 319 3.2 8.0 0.00 0.00 0.00 94 1016.1
20260906010243 17 302 4.8 8.0 0.00 0.00 0.00 94 1016.1
20260906005742 17 319 4.8 8.0 0.00 0.00 0.00 93 1016.1
20260906005241 17 0.0 0.0 0.00 0.00 0.00 93 1016.1
20260906004741 17 327 3.2 3.2 0.00 0.00 0.00 93 1015.8
20260906003841 17 327 1.6 3.2 0.00 0.00 0.00 91 1015.8
20260906003240 17 317 1.6 1.6 0.00 0.00 0.00 93 1015.8
20260906002739 17 317 1.6 3.2 0.00 0.00 0.00 96 1015.6
20260906002239 17 322 3.2 4.8 0.00 0.00 0.00 95 1015.4
20260906001740 17 322 1.6 1.6 0.00 0.00 0.00 96 1015.4
20260906001239 17 322 1.6 1.6 0.00 0.00 0.00 94 1015.4
20260906000738 17 324 1.6 1.6 0.00 0.00 0.00 92 1015.6
20260906000304 17 327 3.2 3.2 0.00 0.00 0.00 93 1015.4
20260905235738 17 320 1.6 3.2 0.00 0.00 0.00 92 1015.4
20260905235237 17 322 1.6 1.6 0.00 0.00 0.00 95 1015.4
20260905234737 17 324 1.6 1.6 0.00 0.00 0.00 96 1015.4
20260905234236 17 322 1.6 1.6 0.00 0.00 0.00 96 1015.4
20260905233737 17 326 1.6 1.6 0.00 0.00 0.00 96 1015.1
20260905233236 17 325 1.6 1.6 0.00 0.00 0.00 95 1015.1
20260905232735 17 325 1.6 1.6 0.00 0.00 0.00 95 1015.1
20260905232234 17 324 1.6 1.6 0.00 0.00 0.00 95 1015.1
20260905231736 17 322 1.6 1.6 0.00 0.00 0.00 95 1015.1
20260905231235 17 324 1.6 1.6 0.00 0.00 0.00 95 1015.1
20260905230734 17 326 1.6 1.6 0.00 0.00 0.00 94 1014.9
20260905230235 17 326 1.6 1.6 0.00 0.00 0.00 91 1015.1
20260905225736 17 326 1.6 1.6 0.00 0.00 0.00 91 1015.1
20260905225234 17 0.0 0.0 0.00 0.00 0.00 90 1015.1
20260905224733 18 0.0 0.0 0.00 0.00 0.00 88 1015.1
20260905224233 18 0.0 0.0 0.00 0.00 0.00 88 1015.1
20260905223733 18 0.0 0.0 0.00 0.00 0.00 88 1014.7
20260905223333 19 0.0 0.0 0.00 0.00 0.00 84 1014.7
20260905222231 20 330 1.6 1.6 0.00 0.00 0.00 83 1014.7
20260905221732 20 330 1.6 1.6 0.00 0.00 0.00 83 1014.7
20260905221231 20 345 4.8 4.8 0.00 0.00 0.00 78 1014.7
20260905220730 20 345 4.8 4.8 0.00 0.00 0.00 78 1014.7
20260905220232 20 316 1.6 3.2 0.00 0.00 0.00 78 1014.7
20260905215731 20 329 1.6 1.6 0.00 0.00 0.00 78 1014.7
20260905215230 21 356 4.8 11.3 0.00 0.00 0.00 76 1014.7
20260905214729 21 328 4.8 8.0 0.00 0.00 0.00 75 1014.4
20260905214228 20 338 3.2 4.8 0.00 0.00 0.00 75 1014.7
20260905213730 21 334 1.6 3.2 0.00 0.00 0.00 72 1014.4
20260905213229 21 320 1.6 3.2 0.00 0.00 0.00 75 1014.4
20260905212728 20 313 1.6 3.2 0.00 0.00 0.00 76 1014.4
20260905211726 20 326 8.0 9.7 0.00 0.00 0.00 77 1014.2
20260905211227 20 329 6.4 11.3 0.00 0.00 0.00 75 1014.0
20260905210727 20 329 6.4 11.3 0.00 0.00 0.00 75 1014.0
20260905210226 20 345 3.2 4.8 0.00 0.00 0.00 74 1014.0
20260905205725 21 336 1.6 1.6 0.00 0.00 0.00 73 1014.0
20260905205226 21 319 3.2 3.2 0.00 0.00 0.00 72 1014.0
20260905204725 22 309 8.0 8.0 0.00 0.00 0.00 73 1014.0
20260905204225 22 324 3.2 4.8 0.00 0.00 0.00 70 1014.0
20260905203724 22 317 1.6 3.2 0.00 0.00 0.00 70 1014.0
20260905203225 22 314 1.6 1.6 0.00 0.00 0.00 74 1013.7
20260905202724 22 279 9.7 11.3 0.00 0.00 0.00 73 1013.8
20260905202223 22 322 3.2 3.2 0.00 0.00 0.00 73 1013.7
20260905201723 21 333 4.8 8.0 0.00 0.00 0.00 72 1013.7
20260905201224 22 325 3.2 3.2 0.00 0.00 0.00 73 1013.7
20260905200823 22 324 3.2 3.2 0.00 0.00 0.00 71 1013.7
20260905200322 22 324 3.2 3.2 0.00 0.00 0.00 71 1013.7
20260905195721 22 291 4.8 4.8 0.00 0.00 0.00 72 1013.5
20260905195324 22 263 12.9 16.1 0.00 0.00 0.00 71 1013.3
20260905194823 22 329 6.4 9.7 0.00 0.00 0.00 70 1013.3
20260905194224 23 335 8.0 11.3 0.00 0.00 0.00 69 1013.7
20260905193720 22 297 8.0 12.9 0.00 0.00 0.00 68 1013.7
20260905193221 22 311 8.0 11.3 0.00 0.00 0.00 71 1013.3
20260905192720 22 332 9.7 12.9 0.00 0.00 0.00 68 1013.7
20260905192219 22 326 4.8 4.8 0.00 0.00 0.00 70 1013.7
20260905191719 22 329 1.6 1.6 0.00 0.00 0.00 70 1013.7
20260905191220 23 296 6.4 9.7 0.00 0.00 0.00 69 1013.7
20260905190719 22 318 1.6 3.2 0.00 0.00 0.00 70 1013.7
20260905190218 22 341 4.8 8.0 0.00 0.00 0.00 73 1013.7
20260905185717 22 326 8.0 12.9 0.00 0.00 0.00 71 1014.0
20260905185217 22 71 3.2 4.8 0.00 0.00 0.00 74 1013.7
20260905184718 22 329 4.8 4.8 0.00 0.00 0.00 72 1013.3
20260905184218 22 337 1.6 3.2 0.00 0.00 0.00 71 1013.7
20260905183716 22 282 6.4 9.7 0.00 0.00 0.00 74 1013.7
20260905183318 22 305 3.2 8.0 0.00 0.00 0.00 73 1013.7
20260905182717 22 295 4.8 8.0 0.00 0.00 0.00 72 1013.7
20260905181745 21 328 3.2 4.8 0.00 0.00 0.00 76 1013.7
20260905181244 21 312 1.6 1.6 0.00 0.00 0.00 77 1013.7
20260905180746 21 313 9.7 11.3 0.00 0.00 0.00 78 1013.7
20260905180245 21 328 6.4 12.9 0.00 0.00 0.00 78 1013.8
20260905175744 21 338 3.2 8.0 0.00 0.00 0.00 78 1013.7
20260905175243 20 319 9.7 11.3 0.00 0.00 0.00 77 1013.7